[[{"header":{"parameterUnit":"m.s-1","parameterCategory":1,"la1":30.2991,"la2":30.254,"lo1":-89.0895,"lo2":-89.0444,"dy":0.0017,"dx":0.0017,"nx":28,"ny":28,"refTime":"2024-05-25T09:00:00:Z","depth":0,"parameterNumber":2,"parameterNumberName":"U-component_of_WINDS"},"data":[0,0,0,0,0,0,0,0,0,0,0,0,0,0,0,0,0,0,0,0,0,0,0,0,0,0,0,0,0,0,0,0,0,0,0,0,0,0,0,0,0,0,0,0,0,0,0,0,0,0,0,0,0,0,0,0,0,0,-0.3514,-0.3514,0,-0.3494,-0.3494,-0.3494,-0.3493,-0.3493,-0.3493,-0.3493,-0.3472,-0.3472,-0.3471,0,0,0,0,0,0,0,0,0,0,0,0,0,-0.355,-0.3549,-0.3514,-0.3514,-0.3513,-0.3494,-0.3494,-0.3494,-0.3493,-0.3493,-0.3493,-0.3493,-0.3473,-0.3472,-0.3471,0,0,0,0,0,0,0,0,0,0,0,0,0,-0.3533,-0.3549,-0.3514,-0.351,-0.351,-0.3494,-0.3494,-0.3494,-0.3492,-0.3493,-0.3493,-0.3493,-0.3473,-0.3472,-0.3471,-0.3457,0,0,-0.3467,-0.3467,0,0,0,0,0,0,0,0,-0.3534,-0.3531,-0.3511,-0.3511,-0.351,-0.3496,-0.3499,-0.3481,-0.3492,-0.3499,-0.3493,-0.3494,-0.348,-0.3478,-0.3474,-0.3456,-0.3455,-0.3467,-0.3466,-0.3466,-0.3466,0,0,0,0,0,0,0,-0.3535,-0.3532,-0.3506,-0.3511,-0.351,-0.351,-0.3508,-0.3496,-0.3488,-0.3498,-0.3498,-0.3496,-0.348,-0.3475,-0.3473,-0.3455,-0.3467,-0.3466,-0.3465,-0.3465,-0.3426,-0.3426,0,0,0,0,0,0,-0.3537,-0.3533,-0.3507,-0.3505,-0.3523,-0.3509,-0.3507,-0.35,-0.3488,-0.3486,-0.3496,-0.3496,-0.3477,-0.3475,-0.3473,-0.3457,-0.3466,-0.3465,-0.3464,-0.3426,-0.3426,-0.3426,0,0,0,0,0,0,-0.3538,-0.3534,-0.3507,-0.3519,-0.3516,-0.3508,-0.3501,-0.35,-0.3495,-0.3486,-0.3485,-0.3492,-0.3477,-0.3474,-0.3461,-0.3456,-0.3464,-0.3463,-0.3427,-0.3426,-0.3426,-0.3424,0,0,0,0,0,0,-0.3539,-0.3535,-0.3529,-0.3519,-0.3515,-0.3496,-0.3501,-0.3499,-0.3493,-0.3493,-0.3482,-0.3481,-0.3477,-0.3463,-0.346,-0.3454,-0.3462,-0.3427,-0.3427,-0.3426,-0.3424,-0.3423,-0.3422,0,0,0,0,0,-0.354,-0.3529,-0.3529,-0.3526,-0.3508,-0.3496,-0.3494,-0.349,-0.3493,-0.3487,-0.3482,-0.3481,-0.3457,-0.3462,-0.3458,-0.3452,-0.3428,-0.3427,-0.3426,-0.3425,-0.3423,-0.3422,0,0,0,0,0,0,-0.3538,-0.3528,-0.3527,-0.3513,-0.3506,-0.3496,-0.3489,-0.3488,-0.3479,-0.348,-0.3475,-0.3473,-0.346,-0.3455,-0.346,-0.3439,-0.3443,-0.3441,-0.3443,-0.3441,-0.3441,-0.3442,-0.3461,0,0,0,0,0,-0.3536,-0.3527,-0.3518,-0.3506,-0.3503,-0.3497,-0.3491,-0.3489,-0.3481,-0.3477,-0.3471,-0.3463,-0.3453,-0.3447,-0.3438,-0.3424,-0.3422,-0.3418,-0.3417,-0.3416,-0.3415,-0.3408,-0.3406,-0.3423,-0.3423,-0.3423,0,0,-0.3531,-0.3525,-0.3519,-0.3506,-0.35,-0.3491,-0.3494,-0.3484,-0.3477,-0.3476,-0.3463,-0.3458,-0.3449,-0.3436,-0.3429,-0.3431,-0.341,-0.3415,-0.3415,-0.3414,-0.3407,-0.3405,-0.3404,-0.3423,-0.3423,-0.3423,0,0,-0.3519,-0.3512,-0.3502,-0.3497,-0.3488,-0.3484,-0.3482,-0.3472,-0.3469,-0.3457,-0.3456,-0.3448,-0.3432,-0.3425,-0.342,-0.3407,-0.3406,-0.3404,-0.3399,-0.3392,-0.3391,-0.3389,-0.3385,-0.3383,-0.3403,-0.3403,-0.3403,0,-0.3514,-0.35,-0.3497,-0.3487,-0.3482,-0.3481,-0.3471,-0.3466,-0.3454,-0.345,-0.3452,-0.3433,-0.3427,-0.3412,-0.3409,-0.3405,-0.3402,-0.3405,-0.3391,-0.339,-0.3389,-0.3384,-0.3383,-0.3403,-0.3403,-0.3403,-0.3403,0,-0.3496,-0.3486,-0.3479,-0.3469,-0.3463,-0.3453,-0.3448,-0.3442,-0.3441,-0.3437,-0.3425,-0.3418,-0.3407,-0.3404,-0.3402,-0.339,-0.3391,-0.3392,-0.3396,-0.3387,-0.3383,-0.3381,-0.3402,-0.3402,-0.3402,-0.3402,0,0,-0.348,-0.3469,-0.3466,-0.3462,-0.3453,-0.3446,-0.3436,-0.3427,-0.3422,-0.3415,-0.3407,-0.3394,-0.3395,-0.3389,-0.3387,-0.3381,-0.3372,-0.3383,-0.3383,-0.3381,-0.3358,-0.3357,-0.3355,-0.3372,-0.3371,-0.3371,-0.3359,0,-0.3466,-0.3449,-0.3447,-0.3432,-0.3424,-0.3424,-0.3416,-0.341,-0.3406,-0.3399,-0.3395,-0.3386,-0.3388,-0.3385,-0.3379,-0.3374,-0.3367,-0.3375,-0.3364,-0.3364,-0.3366,-0.3353,-0.3352,-0.3341,-0.3357,-0.3357,-0.3357,0,-0.3448,-0.3441,-0.3425,-0.3418,-0.3415,-0.3408,-0.3399,-0.3392,-0.3385,-0.3383,-0.3378,-0.3376,-0.3367,-0.3371,-0.3358,-0.3364,-0.3359,-0.3357,-0.3356,-0.3355,-0.336,-0.3351,-0.3337,-0.3336,-0.3354,-0.3354,-0.3355,0,-0.3438,-0.3425,-0.3414,-0.3411,-0.3402,-0.3397,-0.3393,-0.3387,-0.3382,-0.3375,-0.3372,-0.3363,-0.3359,-0.3352,-0.3349,-0.3352,-0.3336,-0.334,-0.3334,-0.3335,-0.3331,-0.3331,-0.3316,-0.3328,-0.3328,-0.3328,-0.3328,0,-0.3423,-0.3414,-0.341,-0.3403,-0.3393,-0.3391,-0.3381,-0.3377,-0.3372,-0.3365,-0.3364,-0.3358,-0.3354,-0.3346,-0.3344,-0.3334,-0.3332,-0.333,-0.3329,-0.333,-0.333,-0.3327,-0.3327,-0.3328,-0.3328,-0.3328,-0.3328,0,-0.3411,-0.3408,-0.3396,-0.339,-0.3388,-0.3381,-0.3375,-0.3369,-0.3366,-0.3357,-0.3355,-0.335,-0.3342,-0.3338,-0.3328,-0.3326,-0.3315,-0.3314,-0.3317,-0.3317,-0.3311,-0.3312,-0.3293,-0.3291,-0.3305,-0.3304,-0.3304,0,-0.3401,-0.3394,-0.3387,-0.3383,-0.3379,-0.3372,-0.3367,-0.3365,-0.336,-0.3352,-0.3347,-0.3339,-0.3332,-0.3319,-0.3314,-0.3307,-0.3306,-0.33,-0.3305,-0.3306,-0.3307,-0.3307,-0.3307,-0.3299,-0.3299,-0.3299,-0.3299,0,-0.3385,-0.3384,-0.3377,-0.337,-0.3365,-0.3359,-0.3353,-0.335,-0.3347,-0.3341,-0.3333,-0.3328,-0.3318,-0.331,-0.3302,-0.3298,-0.3298,-0.3298,-0.3296,-0.3296,-0.3298,-0.3298,-0.3315,-0.3298,-0.3298,-0.3298,-0.3298,-0.3298,-0.3374,-0.3368,-0.3363,-0.3355,-0.3351,-0.3346,-0.334,-0.3337,-0.3331,-0.3323,-0.3322,-0.3313,-0.3308,-0.3297,-0.3293,-0.3286,-0.3288,-0.3285,-0.3285,-0.3284,-0.3284,-0.33,-0.3285,-0.3285,-0.3285,-0.3285,-0.3285,0,-0.3358,-0.3355,-0.3348,-0.3341,-0.3335,-0.3336,-0.3331,-0.3326,-0.3319,-0.3313,-0.3307,-0.3299,-0.3291,-0.3287,-0.3279,-0.3275,-0.3275,-0.3273,-0.3273,-0.3272,-0.3283,-0.3285,-0.3273,-0.3273,-0.3273,-0.3273,-0.3273,-0.3273,-0.3349,-0.3339,-0.3338,-0.3327,-0.3324,-0.3316,-0.3312,-0.3308,-0.3304,-0.3295,-0.3289,-0.3286,-0.3281,-0.3274,-0.3267,-0.3266,-0.3264,-0.3262,-0.3261,-0.327,-0.3272,-0.3273,-0.3275,-0.3261,-0.3261,-0.3251,-0.3251,-0.3251]},{"header":{"parameterUnit":"m.s-1","parameterCategory":1,"la1":30.2991,"la2":30.254,"lo1":-89.0895,"lo2":-89.0444,"dy":0.0017,"dx":0.0017,"nx":28,"ny":28,"refTime":"2024-05-25T09:00:00:Z","depth":0,"parameterNumber":3,"parameterNumberName":"V-component_of_WINDS"},"data":[0,0,0,0,0,0,0,0,0,0,0,0,0,0,0,0,0,0,0,0,0,0,0,0,0,0,0,0,0,0,0,0,0,0,0,0,0,0,0,0,0,0,0,0,0,0,0,0,0,0,0,0,0,0,0,0,0,0,5.1316,5.1316,0,5.1336,5.1336,5.1336,5.1283,5.1282,5.128,5.1279,5.1296,5.1298,5.13,0,0,0,0,0,0,0,0,0,0,0,0,0,5.123,5.1232,5.1316,5.1316,5.1317,5.1336,5.1336,5.1336,5.1284,5.1282,5.128,5.1278,5.1295,5.1297,5.13,0,0,0,0,0,0,0,0,0,0,0,0,0,5.1261,5.1233,5.1316,5.1293,5.1291,5.1336,5.1336,5.1336,5.1284,5.1282,5.1279,5.1277,5.1294,5.1297,5.13,5.1367,0,0,5.1309,5.131,0,0,0,0,0,0,0,0,5.1259,5.1264,5.1296,5.1294,5.1292,5.1305,5.1312,5.1347,5.1285,5.1287,5.1278,5.1276,5.13,5.1303,5.1312,5.1368,5.1369,5.1309,5.1311,5.1312,5.1313,0,0,0,0,0,0,0,5.1257,5.1263,5.1324,5.1296,5.1294,5.128,5.1282,5.1318,5.1307,5.1286,5.1282,5.1286,5.1299,5.1309,5.1312,5.1369,5.1309,5.1312,5.1314,5.1315,5.1483,5.1485,0,0,0,0,0,0,5.1258,5.1261,5.1323,5.1324,5.1269,5.1284,5.1286,5.1303,5.1306,5.1305,5.1288,5.1283,5.1305,5.1308,5.1312,5.1392,5.1312,5.1315,5.1317,5.148,5.1483,5.1486,0,0,0,0,0,0,5.1257,5.1264,5.1322,5.1292,5.1298,5.1288,5.1308,5.1305,5.1315,5.1308,5.1305,5.13,5.1303,5.1308,5.1354,5.1392,5.1317,5.1319,5.1477,5.1481,5.1485,5.1552,0,0,0,0,0,0,5.1254,5.1264,5.129,5.1293,5.13,5.1365,5.131,5.1307,5.132,5.1315,5.1319,5.1317,5.1302,5.135,5.1357,5.1394,5.1322,5.1474,5.1479,5.1484,5.1546,5.1558,5.1567,0,0,0,0,0,5.1252,5.1307,5.1292,5.1299,5.1333,5.1368,5.1372,5.1354,5.1324,5.1349,5.1345,5.1317,5.1387,5.1356,5.1363,5.1402,5.1471,5.1477,5.1483,5.1541,5.1555,5.1567,0,0,0,0,0,0,5.1308,5.1307,5.129,5.1348,5.1359,5.1359,5.1391,5.1369,5.1387,5.1381,5.1357,5.1358,5.1409,5.141,5.1375,5.1467,5.1424,5.1431,5.1465,5.1478,5.1489,5.1488,5.1324,0,0,0,0,0,5.1327,5.1357,5.1354,5.1406,5.1412,5.1401,5.1415,5.1401,5.141,5.1414,5.1412,5.1422,5.1446,5.1462,5.1483,5.1546,5.1546,5.1576,5.1587,5.1595,5.1603,5.1636,5.165,5.1506,5.1506,5.1506,0,0,5.1367,5.137,5.139,5.1417,5.1424,5.1454,5.1405,5.1438,5.1461,5.1418,5.1463,5.1463,5.1471,5.1526,5.155,5.1528,5.1642,5.1603,5.161,5.1613,5.1644,5.1658,5.167,5.151,5.1509,5.1509,0,0,5.1456,5.1461,5.1506,5.1513,5.1524,5.1516,5.1527,5.1531,5.1529,5.1573,5.1543,5.1568,5.161,5.1618,5.1627,5.172,5.1695,5.1728,5.1783,5.1816,5.1827,5.1837,5.1871,5.1883,5.1735,5.1735,5.1735,0,5.1504,5.155,5.1531,5.1568,5.1581,5.1545,5.159,5.1597,5.1614,5.1624,5.1599,5.1651,5.1654,5.1711,5.1734,5.1742,5.1754,5.1727,5.1827,5.1837,5.1846,5.1878,5.1891,5.1739,5.1738,5.1738,5.1737,0,5.1609,5.1641,5.1675,5.1694,5.1711,5.1751,5.1738,5.1757,5.1741,5.1736,5.1782,5.1784,5.1806,5.1819,5.1803,5.1874,5.186,5.1832,5.1787,5.1864,5.1894,5.1906,5.1744,5.1743,5.1742,5.1741,0,0,5.1733,5.1742,5.1755,5.1764,5.1773,5.1797,5.1836,5.1859,5.1876,5.1888,5.192,5.1957,5.1931,5.1942,5.1927,5.1956,5.203,5.1924,5.1924,5.1944,5.2109,5.213,5.2145,5.2014,5.2016,5.2018,5.2108,0,5.1821,5.189,5.1874,5.1941,5.197,5.1937,5.1971,5.198,5.1976,5.2,5.1995,5.2022,5.1986,5.1992,5.202,5.2016,5.2063,5.2009,5.2043,5.2044,5.2042,5.216,5.2183,5.2268,5.212,5.2122,5.2123,0,5.1934,5.1953,5.2023,5.2029,5.204,5.2071,5.2091,5.2115,5.2124,5.2119,5.2132,5.2111,5.2149,5.2104,5.2156,5.212,5.2133,5.2133,5.2135,5.2138,5.2089,5.2167,5.2295,5.2308,5.2141,5.2139,5.2138,0,5.2019,5.2061,5.2109,5.2117,5.2125,5.2147,5.2151,5.2159,5.2174,5.2191,5.22,5.2221,5.2232,5.2249,5.2234,5.2203,5.2289,5.2242,5.2285,5.2286,5.2305,5.2304,5.2438,5.2313,5.2313,5.2312,5.2312,0,5.2119,5.2164,5.2148,5.2177,5.2226,5.2207,5.2256,5.2256,5.2263,5.2291,5.2263,5.229,5.2269,5.2294,5.2282,5.2327,5.2332,5.2329,5.2326,5.2332,5.2333,5.2341,5.2335,5.2316,5.2315,5.2314,5.2314,0,5.2223,5.2214,5.2264,5.2267,5.2269,5.2305,5.2308,5.2335,5.2329,5.2365,5.2373,5.2364,5.2392,5.2379,5.2408,5.24,5.2458,5.2447,5.2456,5.2453,5.2497,5.2493,5.2641,5.266,5.2522,5.2523,5.2524,0,5.2288,5.2322,5.2329,5.2347,5.2354,5.2382,5.2398,5.238,5.2398,5.2412,5.2437,5.2463,5.2483,5.2529,5.2525,5.2547,5.2536,5.2586,5.2539,5.2545,5.2537,5.2536,5.2539,5.2596,5.2597,5.2599,5.26,0,5.2405,5.2399,5.2424,5.2447,5.2467,5.2483,5.2498,5.2514,5.2497,5.2517,5.2547,5.2562,5.2593,5.2619,5.2638,5.2641,5.2618,5.2615,5.2626,5.2633,5.2637,5.2636,5.2482,5.2611,5.261,5.2609,5.2609,5.2608,5.2492,5.2521,5.2531,5.2559,5.2569,5.2583,5.2609,5.2607,5.2631,5.2656,5.2644,5.2678,5.2686,5.2711,5.2717,5.2743,5.2723,5.2739,5.2743,5.2748,5.2754,5.2633,5.2746,5.2746,5.2745,5.2745,5.2745,0,5.2608,5.2614,5.264,5.2662,5.2684,5.2661,5.2676,5.2695,5.2726,5.2737,5.2758,5.2791,5.2817,5.2814,5.2838,5.2859,5.2849,5.2866,5.2864,5.2865,5.277,5.2758,5.2873,5.2873,5.2873,5.2873,5.2873,5.2873,5.2672,5.272,5.2715,5.2767,5.2772,5.2806,5.2817,5.2829,5.2838,5.2878,5.2899,5.2898,5.2903,5.2927,5.2949,5.2947,5.2957,5.2979,5.2973,5.2885,5.2872,5.286,5.2849,5.2981,5.2981,5.3066,5.3067,5.3068]}]]